Wind_Speed
12 11 10 10 12 11 8 6 6 6 5 4 3 2 2 3 4 4 4 3 3 2 3 3 3 3 3 3 3 3 4 5 4 6 6 6 5 5 5 5 5 3 3 3 3 4 4 3 3
13 12 11 12 14 10 7 7 7 7 6 4 4 3 3 3 3 4 4 4 3 3 2 2 2 3 3 2 3 3 4 5 4 5 5 5 5 4 4 4 4 3 3 3 3 4 3 4 4
12 13 13 12 12 9 8 7 7 7 6 5 4 3 3 4 4 4 4 4 3 2 2 2 2 2 2 2 2 3 4 4 5 5 4 4 4 4 4 4 4 3 3 3 3 4 4 4 4
13 13 13 13 11 9 8 8 7 6 7 6 5 4 4 4 4 4 4 4 3 3 2 1 1 1 1 2 2 2 3 3 4 4 4 3 3 3 3 3 3 3 3 3 4 4 4 4 4
12 13 14 13 9 8 8 8 7 7 7 7 6 5 4 4 4 4 4 4 3 3 2 1 0 0 1 1 1 2 2 3 3 3 3 3 3 3 2 3 3 3 3 4 5 5 5 5 5
11 12 13 10 7 7 8 8 8 8 8 7 6 6 6 5 5 5 5 5 4 3 2 2 1 0 1 1 1 2 2 2 3 3 2 2 2 2 2 2 3 3 4 4 4 5 5 6 5
11 12 10 7 7 8 8 8 7 7 7 7 6 6 6 5 5 5 6 6 5 4 3 2 1 0 0 1 2 2 2 2 2 3 3 3 3 3 3 3 3 4 4 5 5 4 5 5 6
9 11 9 7 7 6 6 7 7 7 7 8 7 6 6 6 5 6 6 6 6 6 5 3 1 0 0 1 1 2 2 1 1 1 2 3 3 3 3 3 4 4 4 5 5 5 5 5 6
9 9 7 6 5 5 6 7 7 7 7 7 7 7 6 6 6 6 7 6 6 6 5 4 2 2 0 1 1 1 1 1 1 2 2 3 3 4 4 3 4 5 5 5 5 5 5 5 6
7 6 5 5 5 5 6 6 7 7 7 7 8 7 6 6 6 7 7 7 7 7 6 4 3 2 1 0 1 1 1 1 2 2 2 3 3 4 3 4 5 5 5 5 5 4 4 5 6
4 3 4 4 5 6 6 6 6 7 7 7 8 8 7 6 6 6 7 7 7 7 6 5 4 3 2 1 1 1 2 2 3 3 3 3 4 4 3 4 4 5 5 5 5 5 4 5 5
4 2 3 5 5 6 6 6 6 7 8 8 8 8 7 7 7 7 7 7 7 6 5 5 5 4 3 3 3 3 3 3 4 4 4 5 5 4 4 4 5 5 5 5 4 4 5 5 6
3 3 5 5 5 5 6 6 7 7 8 9 8 8 7 7 7 7 7 7 7 6 5 5 5 5 5 4 3 3 3 4 5 5 5 6 5 5 5 5 6 6 6 5 5 5 5 6 7
4 4 5 5 6 6 6 6 7 7 8 9 9 9 8 8 7 7 7 7 7 7 6 7 6 6 5 5 4 4 3 4 5 5 6 6 6 6 6 6 6 6 6 7 7 7 7 7 7
4 4 5 6 6 6 6 6 7 7 8 9 10 10 9 9 8 8 7 7 7 7 7 7 8 7 6 6 5 5 5 5 5 6 6 5 5 6 6 6 7 7 7 8 8 8 8 8 8
2 2 5 5 5 4 5 6 7 8 9 9 10 10 10 9 9 8 7 7 7 7 7 8 9 8 7 7 6 5 5 5 5 6 5 5 5 6 6 7 8 8 8 8 8 8 8 8 8
1 2 4 6 5 5 6 6 7 8 9 9 9 10 10 9 9 8 8 7 7 7 8 8 9 8 8 8 6 6 5 5 5 5 5 6 6 6 7 7 8 8 8 9 8 8 8 8 8
3 3 3 5 5 5 7 7 7 9 10 10 10 11 10 10 10 9 8 8 8 8 8 8 8 9 9 9 7 7 6 5 5 5 5 6 7 7 8 8 8 8 8 9 8 8 7 8 8
6 5 5 5 5 6 7 8 8 8 10 10 11 11 11 10 10 8 8 8 9 9 9 9 9 8 8 8 8 8 7 6 6 6 6 6 7 8 8 8 9 8 8 8 8 8 8 8 8
7 7 6 7 6 7 7 9 9 10 9 9 10 11 11 9 9 9 8 8 9 9 9 9 8 9 9 9 9 8 7 8 8 7 7 7 8 8 8 9 9 9 9 8 9 9 9 9 9
7 7 7 7 7 8 8 10 10 10 10 9 10 11 12 11 11 10 9 9 9 9 9 9 9 9 9 9 9 9 8 8 8 8 8 8 8 8 9 9 9 9 9 9 9 9 10 10 11
7 8 9 8 8 8 9 13 13 11 11 10 10 11 12 13 13 13 11 10 9 9 9 9 9 9 9 9 9 10 10 10 8 8 7 8 9 10 10 9 9 10 10 11 11 11 11 12 12
9 9 8 8 10 11 10 10 12 12 12 11 12 13 13 13 14 14 12 10 10 10 10 9 10 10 10 10 11 11 12 11 11 10 10 10 10 10 10 10 11 11 11 12 13 12 12 13 13
11 10 9 8 9 11 9 10 14 14 13 13 13 14 14 15 14 14 13 11 11 11 11 10 10 11 11 11 11 11 12 12 12 11 12 12 12 12 13 12 13 13 13 13 13 13 13 13 13
12 11 10 9 10 11 11 13 15 14 15 15 14 13 15 15 14 14 13 12 12 12 12 11 11 11 12 12 12 12 12 13 14 13 13 13 14 14 14 14 14 13 14 15 14 14 14 14 14
12 11 10 10 10 11 11 13 15 15 16 16 15 15 15 14 14 13 14 13 13 13 13 13 13 12 13 13 13 14 14 14 15 14 15 15 15 15 15 15 15 15 15 15 16 16 15 15 15
12 12 11 13 13 14 13 15 16 17 17 16 16 17 15 14 14 14 14 15 14 13 14 15 14 14 14 14 15 15 15 15 15 15 16 16 16 17 17 16 16 16 16 16 16 16 16 16 16
14 14 13 14 15 15 14 15 16 17 17 17 18 19 17 17 15 15 15 15 15 15 16 16 16 16 16 16 16 16 16 16 17 18 18 19 19 19 18 18 18 18 18 18 17 17 17 17 17
14 15 16 16 17 16 17 18 17 20 21 19 18 19 18 16 16 16 16 16 17 17 17 18 17 18 18 18 18 18 17 18 18 19 19 20 20 20 19 19 19 19 19 19 19 18 18 18 18
16 16 17 17 17 17 17 19 19 21 23 21 19 19 18 18 17 17 17 18 18 19 19 19 19 20 20 20 19 19 19 20 21 20 20 21 21 21 21 21 20 20 20 20 20 20 19 19 19
Wind_Direction
79 78 72 72 61 51 41 20 9 14 18 24 24 30 34 50 43 41 42 42 57 88 108 112 109 123 130 137 150 162 163 157 162 171 172 175 182 189 192 194 190 185 184 208 207 196 190 193 190
78 74 68 62 59 46 30 18 11 15 17 25 29 37 42 56 43 43 42 45 63 86 96 96 97 108 125 137 150 161 162 158 157 165 175 181 185 193 198 197 199 191 201 225 225 214 202 205 207
80 71 61 53 49 39 31 25 25 24 21 29 28 30 35 44 48 44 43 43 56 75 91 93 97 104 119 137 137 147 157 164 161 165 173 181 190 197 204 203 210 208 210 227 234 223 218 217 220
81 68 60 48 41 31 30 26 32 30 29 34 30 29 32 39 44 43 49 52 59 68 84 87 87 105 120 133 141 146 160 169 171 178 180 187 200 211 211 207 211 208 228 240 240 232 223 226 228
84 70 51 42 38 31 25 23 33 36 33 32 30 35 37 40 41 39 41 48 49 50 45 18 20 78 142 133 138 160 170 173 185 190 194 204 221 226 231 218 225 235 248 252 249 244 235 237 236
84 71 54 36 29 40 24 21 25 32 23 28 29 33 39 37 37 35 36 37 33 31 3 325 307 257 226 183 168 182 174 185 192 197 206 218 233 239 249 240 255 270 267 268 260 255 249 250 243
79 66 56 39 19 37 28 21 21 24 23 25 31 32 38 34 31 34 32 30 22 23 11 343 322 23 199 201 192 208 203 206 217 223 230 229 240 252 275 262 264 282 281 280 273 264 255 250 248
88 82 64 36 14 21 23 17 19 21 22 23 23 24 28 26 27 25 22 22 21 27 35 40 52 82 226 191 197 189 178 212 245 255 247 247 251 258 269 266 271 276 285 282 279 278 264 258 254
81 76 52 26 15 10 14 12 9 18 20 22 18 22 24 20 21 18 15 18 27 32 39 43 47 38 24 202 209 163 183 218 276 277 265 273 271 269 270 286 288 289 295 294 284 279 274 270 262
63 52 49 24 0 6 19 12 2 8 16 15 14 16 16 15 16 16 18 23 25 28 31 29 23 25 355 252 223 221 235 268 291 292 284 284 292 291 284 290 296 299 297 291 290 278 272 277 281
61 31 31 22 1 1 4 8 11 4 4 6 11 9 13 15 9 13 20 22 22 25 21 24 27 25 5 328 302 301 294 290 291 292 290 292 294 297 301 297 302 299 300 298 289 284 280 288 288
67 39 38 24 14 3 359 2 3 358 355 5 6 7 9 12 14 9 8 13 12 15 16 12 12 3 346 331 317 305 301 304 301 298 295 292 289 297 302 300 298 296 301 300 297 292 294 300 302
70 43 33 15 4 4 2 356 358 1 2 4 2 5 4 7 11 10 5 3 3 4 6 7 4 359 352 340 321 310 302 300 302 302 295 286 288 291 297 299 297 302 305 308 313 312 302 297 300
64 31 19 10 7 9 5 2 0 4 0 0 359 357 359 1 7 9 9 9 4 1 0 359 357 356 351 340 329 329 319 309 310 300 293 288 287 291 296 301 301 302 303 302 308 311 306 302 302
53 17 356 359 4 11 7 0 4 353 350 353 356 356 356 358 3 6 8 11 13 4 357 353 353 351 348 342 342 339 326 316 316 312 306 297 288 287 294 305 308 305 305 306 308 309 310 308 310
44 349 329 346 350 344 347 350 348 350 347 347 353 356 356 355 357 360 3 5 4 359 357 355 352 353 350 345 344 337 332 322 321 320 314 306 300 297 302 308 310 312 313 315 314 312 316 313 311
310 283 305 326 344 326 326 336 336 344 342 340 346 350 353 352 350 351 351 355 354 353 352 351 348 350 350 346 346 349 349 345 337 331 329 324 316 307 311 315 315 316 316 318 318 315 313 309 310
232 258 280 300 313 308 312 326 329 332 334 344 346 346 349 350 347 343 339 341 341 343 345 347 346 345 345 341 339 335 334 336 336 330 326 327 326 324 323 322 321 317 316 319 320 313 312 312 316
242 244 248 267 292 297 301 311 319 323 322 329 334 337 339 346 346 340 332 331 332 336 335 334 335 339 340 339 330 328 324 325 328 329 325 322 324 324 322 323 325 324 320 317 318 316 314 313 317
246 256 260 272 280 289 296 297 309 316 317 317 324 325 334 340 336 332 325 329 329 333 332 329 327 328 331 332 327 325 319 318 320 319 323 324 325 324 322 320 321 323 321 320 321 322 321 317 318
253 259 258 258 262 276 293 296 302 307 310 313 315 315 318 322 326 329 331 326 324 323 324 322 320 322 322 324 325 320 319 316 310 313 320 321 320 320 323 323 323 320 318 318 315 314 314 312 312
249 253 258 254 256 264 271 284 293 296 303 310 312 311 310 315 317 320 321 320 318 320 318 318 318 319 319 319 321 321 323 322 312 310 312 315 318 317 316 317 317 317 315 314 312 309 304 303 305
245 245 256 263 262 266 262 274 287 293 298 302 305 306 307 314 313 315 315 312 311 314 313 314 316 318 317 316 315 314 316 318 316 312 304 303 308 309 309 310 311 312 313 310 309 307 302 299 298
250 249 258 261 264 273 276 277 278 283 289 290 293 299 305 309 311 311 311 310 310 312 310 313 316 316 315 315 314 312 311 314 313 311 307 302 302 302 301 302 304 304 305 306 307 306 304 301 299
251 248 254 261 266 273 274 278 275 280 281 285 293 298 301 303 305 304 302 300 304 308 309 309 312 312 311 310 308 307 307 308 310 312 311 306 305 304 302 303 302 302 303 301 301 302 302 302 299
252 249 251 255 264 275 276 275 279 280 281 285 288 288 296 298 301 299 299 298 300 302 303 304 308 309 308 308 306 304 303 304 306 308 309 311 311 308 305 302 299 300 304 305 304 299 299 300 298
255 248 249 263 261 259 259 266 273 280 284 288 292 296 297 297 301 300 298 297 297 296 297 301 303 305 303 303 304 301 302 303 303 303 305 308 310 309 307 301 299 301 305 307 310 309 303 301 299
245 249 243 247 258 262 263 268 270 279 284 289 294 298 300 295 293 292 293 293 294 293 293 294 294 298 299 300 300 300 302 300 299 299 300 302 304 303 302 302 302 302 302 303 304 305 304 302 300
249 253 251 246 245 256 260 261 264 273 280 285 288 293 297 295 295 290 286 288 293 291 290 292 289 294 296 297 297 299 300 300 300 299 298 299 300 299 299 298 299 299 300 300 301 302 300 299 299
248 250 252 256 255 255 258 266 268 274 280 283 283 287 289 291 292 291 293 293 293 292 292 291 292 293 294 296 296 296 297 298 298 297 296 296 296 296 296 294 295 296 297 297 297 298 297 298 299
Height
5891 5890 5890 5890 5890 5889 5889 5889 5888 5887 5887 5886 5884 5884 5883 5883 5884 5885 5882 5880 5879 5879 5880 5880 5880 5881 5881 5881 5882 5882 5882 5883 5883 5884 5884 5885 5885 5886 5887 5887 5888 5888 5888 5889 5889 5889 5890 5890 5891
5893 5893 5892 5891 5890 5892 5892 5891 5889 5889 5888 5886 5886 5885 5884 5884 5884 5883 5881 5881 5880 5880 5881 5881 5881 5881 5882 5882 5882 5882 5883 5883 5884 5884 5885 5885 5886 5886 5887 5887 5887 5888 5888 5889 5889 5889 5890 5890 5891
5896 5894 5895 5893 5893 5894 5894 5892 5891 5890 5889 5888 5887 5886 5886 5885 5885 5883 5883 5882 5882 5882 5882 5882 5882 5882 5882 5883 5883 5883 5883 5884 5884 5884 5885 5885 5886 5886 5887 5887 5887 5887 5888 5889 5889 5889 5890 5890 5890
5897 5897 5897 5896 5897 5897 5895 5894 5892 5891 5890 5889 5888 5888 5887 5886 5885 5884 5884 5884 5883 5883 5883 5882 5883 5883 5883 5883 5883 5883 5884 5884 5884 5885 5885 5886 5886 5887 5886 5886 5887 5887 5888 5888 5889 5889 5889 5890 5890
5899 5899 5898 5898 5899 5899 5897 5896 5894 5893 5892 5891 5890 5889 5888 5887 5886 5885 5885 5884 5884 5883 5882 5883 5883 5883 5883 5883 5883 5884 5884 5885 5885 5885 5886 5886 5886 5887 5886 5886 5887 5887 5888 5888 5888 5888 5889 5889 5890
5900 5900 5901 5902 5902 5900 5899 5897 5896 5895 5893 5892 5892 5891 5890 5889 5887 5887 5886 5885 5884 5884 5883 5883 5883 5883 5884 5884 5884 5884 5884 5885 5885 5885 5886 5886 5887 5887 5887 5887 5887 5887 5887 5888 5888 5888 5888 5888 5889
5903 5903 5903 5904 5903 5902 5901 5899 5898 5896 5895 5894 5893 5892 5891 5890 5889 5888 5887 5886 5885 5884 5883 5882 5883 5883 5884 5884 5884 5884 5885 5885 5885 5886 5886 5886 5887 5887 5887 5887 5887 5887 5887 5887 5887 5887 5887 5887 5888
5904 5905 5906 5906 5905 5904 5902 5901 5900 5898 5897 5896 5895 5894 5893 5892 5891 5889 5888 5887 5886 5884 5883 5882 5883 5884 5884 5884 5884 5884 5885 5885 5886 5886 5886 5886 5887 5887 5887 5887 5887 5887 5886 5886 5886 5886 5886 5887 5887
5905 5907 5907 5907 5907 5905 5903 5902 5901 5899 5898 5897 5896 5895 5894 5893 5892 5891 5890 5888 5887 5886 5884 5883 5884 5884 5884 5884 5884 5885 5885 5885 5886 5886 5886 5886 5886 5887 5887 5887 5887 5887 5886 5886 5886 5886 5886 5885 5886
5907 5908 5908 5908 5907 5906 5905 5904 5902 5901 5899 5898 5897 5896 5895 5894 5893 5892 5891 5889 5888 5887 5886 5885 5885 5885 5885 5885 5885 5885 5886 5886 5886 5886 5886 5886 5886 5886 5886 5886 5886 5886 5886 5885 5885 5885 5885 5885 5884
5908 5909 5909 5909 5908 5907 5906 5905 5904 5902 5901 5900 5899 5897 5896 5895 5894 5893 5892 5891 5890 5889 5887 5886 5886 5886 5886 5886 5886 5886 5886 5886 5886 5886 5886 5886 5886 5886 5886 5886 5886 5885 5885 5884 5884 5884 5884 5884 5884
5910 5910 5910 5910 5909 5908 5907 5906 5904 5903 5902 5901 5900 5898 5897 5896 5895 5894 5893 5892 5891 5890 5889 5888 5888 5887 5886 5886 5886 5886 5886 5886 5886 5886 5886 5886 5886 5886 5886 5886 5886 5885 5884 5884 5883 5883 5883 5883 5883
5911 5911 5911 5910 5910 5909 5908 5907 5905 5904 5903 5902 5900 5899 5898 5897 5896 5895 5894 5893 5892 5891 5890 5889 5889 5888 5887 5887 5886 5886 5886 5885 5886 5885 5885 5885 5885 5885 5885 5885 5885 5884 5884 5883 5883 5882 5882 5882 5882
5911 5912 5912 5911 5910 5909 5909 5907 5906 5905 5904 5903 5901 5900 5899 5898 5897 5896 5895 5894 5893 5892 5891 5890 5890 5889 5888 5887 5886 5886 5885 5885 5885 5884 5884 5885 5885 5884 5884 5884 5884 5884 5883 5883 5882 5882 5881 5881 5880
5912 5912 5913 5912 5910 5910 5910 5908 5907 5906 5905 5904 5902 5901 5900 5898 5897 5896 5895 5894 5894 5893 5892 5891 5890 5889 5888 5887 5886 5886 5885 5885 5884 5884 5884 5884 5884 5884 5884 5884 5883 5883 5883 5882 5881 5881 5880 5879 5879
5912 5913 5914 5913 5912 5911 5911 5910 5908 5906 5905 5904 5903 5902 5900 5899 5898 5897 5896 5895 5894 5893 5893 5892 5891 5890 5889 5888 5887 5886 5885 5885 5884 5884 5884 5884 5884 5883 5883 5883 5883 5882 5882 5881 5880 5879 5879 5879 5878
5913 5914 5914 5914 5913 5913 5911 5910 5909 5907 5906 5904 5903 5902 5901 5900 5898 5897 5896 5895 5894 5894 5893 5892 5891 5890 5889 5888 5887 5886 5886 5885 5884 5884 5884 5884 5884 5883 5883 5882 5882 5882 5881 5880 5879 5879 5878 5878 5877
5913 5914 5915 5914 5913 5913 5911 5910 5909 5908 5906 5905 5904 5902 5901 5900 5898 5897 5896 5895 5895 5894 5893 5892 5891 5890 5889 5888 5887 5886 5886 5885 5885 5884 5884 5884 5883 5883 5882 5882 5881 5880 5880 5879 5878 5878 5877 5876 5875
5912 5913 5914 5914 5913 5913 5911 5910 5910 5908 5907 5906 5904 5903 5901 5900 5898 5896 5896 5895 5895 5894 5893 5892 5891 5890 5889 5888 5887 5886 5885 5885 5885 5884 5884 5883 5883 5882 5882 5881 5880 5879 5879 5878 5877 5877 5876 5875 5874
5911 5911 5912 5912 5912 5912 5911 5910 5909 5908 5907 5906 5904 5903 5900 5899 5898 5897 5896 5895 5894 5893 5892 5891 5890 5890 5889 5887 5886 5886 5885 5884 5884 5884 5883 5882 5882 5882 5881 5880 5879 5879 5878 5877 5876 5875 5875 5874 5873
5910 5911 5911 5911 5911 5911 5910 5909 5908 5908 5906 5905 5904 5902 5900 5899 5898 5896 5894 5894 5894 5893 5892 5891 5890 5889 5888 5887 5886 5885 5884 5884 5883 5883 5882 5881 5881 5881 5880 5879 5878 5877 5877 5876 5875 5874 5873 5873 5872
5909 5910 5909 5909 5909 5909 5910 5909 5907 5906 5905 5904 5903 5901 5900 5898 5896 5895 5894 5893 5892 5892 5891 5890 5889 5888 5887 5886 5885 5884 5884 5883 5882 5881 5881 5880 5880 5879 5878 5878 5877 5876 5875 5874 5873 5872 5872 5871 5870
5907 5907 5907 5907 5907 5907 5907 5907 5906 5905 5903 5903 5902 5900 5899 5896 5895 5894 5893 5892 5891 5890 5889 5889 5888 5887 5886 5885 5884 5883 5883 5882 5881 5880 5879 5879 5878 5877 5877 5876 5875 5874 5873 5872 5871 5870 5869 5868 5868
5904 5905 5905 5904 5905 5906 5906 5906 5905 5902 5902 5901 5900 5899 5897 5895 5893 5892 5890 5890 5889 5888 5887 5887 5886 5885 5885 5884 5883 5882 5881 5880 5879 5878 5878 5877 5876 5876 5875 5874 5873 5872 5871 5870 5869 5868 5867 5866 5865
5902 5903 5903 5903 5903 5903 5905 5904 5902 5901 5900 5899 5897 5896 5895 5893 5891 5890 5888 5887 5887 5886 5886 5885 5885 5884 5883 5882 5881 5880 5879 5878 5877 5876 5876 5875 5874 5873 5872 5871 5870 5869 5868 5867 5866 5865 5864 5863 5862
5899 5900 5901 5901 5903 5903 5902 5901 5899 5898 5898 5896 5895 5893 5892 5890 5888 5887 5886 5885 5885 5884 5884 5883 5883 5882 5881 5880 5879 5878 5877 5876 5875 5874 5874 5873 5872 5871 5869 5869 5868 5867 5865 5864 5863 5862 5861 5860 5859
5895 5896 5899 5899 5899 5899 5899 5898 5897 5895 5894 5893 5892 5890 5889 5888 5886 5885 5884 5883 5882 5882 5882 5881 5880 5880 5879 5878 5877 5875 5874 5873 5873 5872 5871 5870 5869 5868 5866 5865 5864 5863 5862 5861 5860 5859 5857 5857 5856
5893 5894 5895 5896 5896 5896 5896 5894 5893 5892 5891 5890 5889 5887 5886 5885 5884 5883 5881 5880 5880 5879 5879 5878 5877 5876 5875 5874 5873 5872 5871 5870 5870 5869 5868 5867 5866 5864 5863 5862 5861 5860 5859 5858 5857 5855 5854 5853 5852
5890 5890 5890 5891 5892 5893 5892 5893 5889 5889 5888 5887 5887 5885 5883 5881 5880 5879 5877 5876 5877 5876 5876 5875 5873 5872 5871 5871 5870 5869 5868 5867 5866 5865 5864 5863 5861 5860 5859 5858 5857 5856 5855 5854 5852 5851 5850 5849 5848
5885 5886 5887 5887 5887 5888 5887 5889 5885 5885 5884 5883 5882 5881 5880 5878 5877 5875 5874 5873 5873 5872 5872 5871 5869 5869 5868 5867 5865 5864 5864 5863 5862 5861 5860 5858 5857 5856 5854 5853 5852 5851 5850 5849 5848 5847 5845 5844 5843